Bibliothèque

Musique » Lana Del Rey »

Diet Mountain Dew

217 écoutes | Se rendre sur la page du titre

Du Mercredi 30 novembre 2011 au Mercredi 30 mai 2012 Tout le temps

Titres (217)
Titre Album Durée Date
Diet Mountain Dew 3:43 28 mai 2012, 20h41m
Diet Mountain Dew 3:43 28 mai 2012, 19h40m
Diet Mountain Dew 3:43 28 mai 2012, 18h39m
Diet Mountain Dew 3:43 28 mai 2012, 17h38m
Diet Mountain Dew 3:43 28 mai 2012, 16h38m
Diet Mountain Dew 3:43 28 mai 2012, 15h17m
Diet Mountain Dew 3:43 28 mai 2012, 14h11m
Diet Mountain Dew 3:43 28 mai 2012, 13h10m
Diet Mountain Dew 3:43 28 mai 2012, 12h10m
Diet Mountain Dew 3:43 27 mai 2012, 22h09m
Diet Mountain Dew 3:43 7 mai 2012, 20h27m
Diet Mountain Dew 3:43 7 mai 2012, 19h26m
Diet Mountain Dew 3:43 7 mai 2012, 18h25m
Diet Mountain Dew 3:43 7 mai 2012, 17h24m
Diet Mountain Dew 3:43 27 mars 2012, 22h57m
Diet Mountain Dew 3:43 27 mars 2012, 21h56m
Diet Mountain Dew 3:43 27 mars 2012, 20h55m
Diet Mountain Dew 3:43 27 mars 2012, 19h55m
Diet Mountain Dew 3:43 27 mars 2012, 18h54m
Diet Mountain Dew 3:43 27 mars 2012, 17h53m
Diet Mountain Dew 3:43 27 mars 2012, 16h52m
Diet Mountain Dew 3:43 27 mars 2012, 15h51m
Diet Mountain Dew 3:43 27 mars 2012, 14h51m
Diet Mountain Dew 3:43 27 mars 2012, 13h50m
Diet Mountain Dew 3:43 27 mars 2012, 12h49m
Diet Mountain Dew 3:43 27 mars 2012, 11h48m
Diet Mountain Dew 3:43 27 mars 2012, 10h47m
Diet Mountain Dew 3:43 27 mars 2012, 9h47m
Diet Mountain Dew 3:43 25 mars 2012, 23h24m
Diet Mountain Dew 3:43 25 mars 2012, 22h23m
Diet Mountain Dew 3:43 25 mars 2012, 21h22m
Diet Mountain Dew 3:43 25 mars 2012, 20h21m
Diet Mountain Dew 3:43 25 mars 2012, 19h21m
Diet Mountain Dew 3:43 25 mars 2012, 18h20m
Diet Mountain Dew 3:43 25 mars 2012, 17h19m
Diet Mountain Dew 3:43 25 mars 2012, 16h18m
Diet Mountain Dew 3:43 25 mars 2012, 15h17m
Diet Mountain Dew 3:43 25 mars 2012, 14h17m
Diet Mountain Dew 3:43 25 mars 2012, 13h16m
Diet Mountain Dew 3:43 25 mars 2012, 12h15m
Diet Mountain Dew 3:43 25 mars 2012, 11h14m
Diet Mountain Dew 3:43 25 mars 2012, 10h13m
Diet Mountain Dew 3:43 22 mars 2012, 22h51m
Diet Mountain Dew 3:43 22 mars 2012, 21h50m
Diet Mountain Dew 3:43 22 mars 2012, 20h49m
Diet Mountain Dew 3:43 22 mars 2012, 19h49m
Diet Mountain Dew 3:43 22 mars 2012, 18h48m
Diet Mountain Dew 3:43 22 mars 2012, 17h47m
Diet Mountain Dew 3:43 22 mars 2012, 16h46m
Diet Mountain Dew 3:43 22 mars 2012, 15h45m
Diet Mountain Dew 3:43 22 mars 2012, 14h45m
Diet Mountain Dew 3:43 22 mars 2012, 13h44m
Diet Mountain Dew 3:43 22 mars 2012, 12h43m
Diet Mountain Dew 3:43 22 mars 2012, 11h42m
Diet Mountain Dew 3:43 22 mars 2012, 10h41m
Diet Mountain Dew 3:43 19 mars 2012, 23h10m
Diet Mountain Dew 3:43 19 mars 2012, 22h09m
Diet Mountain Dew 3:43 19 mars 2012, 21h09m
Diet Mountain Dew 3:43 19 mars 2012, 20h08m
Diet Mountain Dew 3:43 19 mars 2012, 19h07m
Diet Mountain Dew 3:43 19 mars 2012, 18h10m
Diet Mountain Dew 3:43 19 mars 2012, 17h09m
Diet Mountain Dew 3:43 18 mars 2012, 22h20m
Diet Mountain Dew 3:43 18 mars 2012, 21h19m
Diet Mountain Dew 3:43 18 mars 2012, 20h18m
Diet Mountain Dew 3:43 18 mars 2012, 19h17m
Diet Mountain Dew 3:43 18 mars 2012, 18h16m
Diet Mountain Dew 3:43 18 mars 2012, 17h16m
Diet Mountain Dew 3:43 18 mars 2012, 16h15m
Diet Mountain Dew 3:43 18 mars 2012, 15h14m
Diet Mountain Dew 3:43 18 mars 2012, 14h13m
Diet Mountain Dew 3:43 18 mars 2012, 13h12m
Diet Mountain Dew 3:43 18 mars 2012, 12h13m
Diet Mountain Dew 3:43 18 mars 2012, 1h13m
Diet Mountain Dew 3:43 18 mars 2012, 0h13m
Diet Mountain Dew 3:43 17 mars 2012, 23h12m
Diet Mountain Dew 3:43 17 mars 2012, 20h14m
Diet Mountain Dew 3:43 17 mars 2012, 19h13m
Diet Mountain Dew 3:43 17 mars 2012, 18h10m
Diet Mountain Dew 3:43 17 mars 2012, 17h09m
Diet Mountain Dew 3:43 17 mars 2012, 16h11m
Diet Mountain Dew 3:43 17 mars 2012, 15h11m
Diet Mountain Dew 3:43 17 mars 2012, 14h10m
Diet Mountain Dew 3:43 17 mars 2012, 13h09m
Diet Mountain Dew 3:43 17 mars 2012, 12h08m
Diet Mountain Dew 3:43 17 mars 2012, 11h07m
Diet Mountain Dew 3:43 17 mars 2012, 10h07m
Diet Mountain Dew 3:43 17 mars 2012, 0h01m
Diet Mountain Dew 3:43 16 mars 2012, 23h00m
Diet Mountain Dew 3:43 16 mars 2012, 21h59m
Diet Mountain Dew 3:43 16 mars 2012, 20h58m
Diet Mountain Dew 3:43 16 mars 2012, 10h35m
Diet Mountain Dew 3:43 16 mars 2012, 9h34m
Diet Mountain Dew 3:43 16 mars 2012, 8h33m
Diet Mountain Dew 3:43 16 mars 2012, 7h32m
Diet Mountain Dew 3:43 16 mars 2012, 6h32m
Diet Mountain Dew 3:43 16 mars 2012, 5h31m
Diet Mountain Dew 3:43 16 mars 2012, 4h30m
Diet Mountain Dew 3:43 16 mars 2012, 3h29m
Diet Mountain Dew 3:43 16 mars 2012, 2h28m
Diet Mountain Dew 3:43 16 mars 2012, 1h28m
Diet Mountain Dew 3:43 16 mars 2012, 0h27m
Diet Mountain Dew 3:43 15 mars 2012, 23h26m
Diet Mountain Dew 3:43 15 mars 2012, 22h25m
Diet Mountain Dew 3:43 15 mars 2012, 21h24m
Diet Mountain Dew 3:43 15 mars 2012, 20h24m
Diet Mountain Dew 3:43 15 mars 2012, 19h23m
Diet Mountain Dew 3:43 15 mars 2012, 18h22m
Diet Mountain Dew 3:43 15 mars 2012, 17h21m
Diet Mountain Dew 3:43 14 mars 2012, 13h56m
Diet Mountain Dew 3:43 14 mars 2012, 12h56m
Diet Mountain Dew 3:43 14 mars 2012, 11h55m
Diet Mountain Dew 3:43 14 mars 2012, 0h24m
Diet Mountain Dew 3:43 13 mars 2012, 23h23m
Diet Mountain Dew 3:43 13 mars 2012, 22h22m
Diet Mountain Dew 3:43 13 mars 2012, 21h21m
Diet Mountain Dew 3:43 13 mars 2012, 20h23m
Diet Mountain Dew 3:43 13 mars 2012, 19h22m
Diet Mountain Dew 3:43 13 mars 2012, 18h36m
Diet Mountain Dew 3:43 13 mars 2012, 18h21m
Diet Mountain Dew 3:43 13 mars 2012, 17h20m
Diet Mountain Dew 3:43 13 mars 2012, 15h19m
Diet Mountain Dew 3:43 13 mars 2012, 14h18m
Diet Mountain Dew 3:43 13 mars 2012, 13h17m
Diet Mountain Dew 3:43 13 mars 2012, 12h16m
Diet Mountain Dew 3:43 13 mars 2012, 11h16m
Diet Mountain Dew 3:43 13 mars 2012, 10h15m
Diet Mountain Dew 3:43 13 mars 2012, 9h14m
Diet Mountain Dew 3:43 13 mars 2012, 8h13m
Diet Mountain Dew 3:43 12 mars 2012, 20h29m
Diet Mountain Dew 3:43 12 mars 2012, 19h28m
Diet Mountain Dew 3:43 12 mars 2012, 18h27m
Diet Mountain Dew 3:43 12 mars 2012, 17h29m
Diet Mountain Dew 3:43 12 mars 2012, 16h28m
Diet Mountain Dew 3:43 12 mars 2012, 15h27m
Diet Mountain Dew 3:43 12 mars 2012, 14h26m
Diet Mountain Dew 3:43 11 mars 2012, 16h14m
Diet Mountain Dew 3:43 11 mars 2012, 15h13m
Diet Mountain Dew 3:43 11 mars 2012, 14h12m
Diet Mountain Dew 3:43 11 mars 2012, 13h14m
Diet Mountain Dew 3:43 11 mars 2012, 12h13m
Diet Mountain Dew 3:43 11 mars 2012, 11h12m
Diet Mountain Dew 3:43 11 mars 2012, 10h11m
Diet Mountain Dew 3:43 10 mars 2012, 23h36m
Diet Mountain Dew 3:43 10 mars 2012, 22h36m
Diet Mountain Dew 3:43 10 mars 2012, 21h35m
Diet Mountain Dew 3:43 10 mars 2012, 20h34m
Diet Mountain Dew 3:43 10 mars 2012, 19h33m
Diet Mountain Dew 3:43 10 mars 2012, 18h32m
Diet Mountain Dew 3:43 10 mars 2012, 17h32m
Diet Mountain Dew 3:43 10 mars 2012, 16h31m
Diet Mountain Dew 3:43 10 mars 2012, 15h30m
Diet Mountain Dew 3:43 10 mars 2012, 14h29m
Diet Mountain Dew 3:43 10 mars 2012, 13h28m
Diet Mountain Dew 3:43 10 mars 2012, 12h05m
Diet Mountain Dew 3:43 10 mars 2012, 11h04m
Diet Mountain Dew 3:43 10 mars 2012, 10h03m
Diet Mountain Dew 3:43 8 mars 2012, 22h13m
Diet Mountain Dew 3:43 8 mars 2012, 21h13m
Diet Mountain Dew 3:43 8 mars 2012, 20h12m
Diet Mountain Dew 3:43 8 mars 2012, 19h11m
Diet Mountain Dew 3:43 8 mars 2012, 18h10m
Diet Mountain Dew 3:43 8 mars 2012, 17h09m
Diet Mountain Dew 3:43 8 mars 2012, 16h09m
Diet Mountain Dew 3:43 8 mars 2012, 15h08m
Diet Mountain Dew 3:43 8 mars 2012, 14h07m
Diet Mountain Dew 3:43 8 mars 2012, 13h06m
Diet Mountain Dew 3:43 8 mars 2012, 12h05m
Diet Mountain Dew 3:43 8 mars 2012, 11h05m
Diet Mountain Dew 3:43 8 mars 2012, 10h04m
Diet Mountain Dew 3:43 8 mars 2012, 9h03m
Diet Mountain Dew 3:43 7 mars 2012, 21h51m
Diet Mountain Dew 3:43 4 mars 2012, 21h18m
Diet Mountain Dew 3:43 4 mars 2012, 20h17m
Diet Mountain Dew 3:43 4 mars 2012, 19h16m
Diet Mountain Dew 3:43 4 mars 2012, 18h16m
Diet Mountain Dew 3:43 4 mars 2012, 17h15m
Diet Mountain Dew 3:43 4 mars 2012, 16h14m
Diet Mountain Dew 3:43 4 mars 2012, 15h13m
Diet Mountain Dew 3:43 4 mars 2012, 14h12m
Diet Mountain Dew 3:43 4 mars 2012, 13h12m
Diet Mountain Dew 3:43 4 mars 2012, 12h11m
Diet Mountain Dew 3:43 4 mars 2012, 11h10m
Diet Mountain Dew 3:43 4 mars 2012, 10h09m
Diet Mountain Dew 3:43 4 mars 2012, 9h08m
Diet Mountain Dew 3:43 4 mars 2012, 8h06m
Diet Mountain Dew 3:43 3 mars 2012, 22h48m
Diet Mountain Dew 3:43 3 mars 2012, 21h47m
Diet Mountain Dew 3:43 3 mars 2012, 21h25m
Diet Mountain Dew 3:43 3 mars 2012, 20h27m
Diet Mountain Dew 3:43 3 mars 2012, 19h26m
Diet Mountain Dew 3:43 3 mars 2012, 18h26m
Diet Mountain Dew 3:43 3 mars 2012, 17h25m
Diet Mountain Dew 3:43 3 mars 2012, 16h24m
Diet Mountain Dew 3:43 3 mars 2012, 15h23m
Diet Mountain Dew 3:43 3 mars 2012, 14h22m
Diet Mountain Dew 3:43 3 mars 2012, 13h22m
Diet Mountain Dew 3:43 3 mars 2012, 12h21m
Diet Mountain Dew 3:43 3 mars 2012, 11h20m
Diet Mountain Dew 3:43 3 mars 2012, 10h19m
Diet Mountain Dew 3:43 3 mars 2012, 9h18m
Diet Mountain Dew 3:43 3 mars 2012, 8h18m
Diet Mountain Dew 3:43 2 mars 2012, 23h50m
Diet Mountain Dew 3:43 2 mars 2012, 22h50m
Diet Mountain Dew 3:43 2 mars 2012, 21h49m
Diet Mountain Dew 3:43 2 mars 2012, 20h48m
Diet Mountain Dew 3:43 2 mars 2012, 19h47m
Diet Mountain Dew 3:43 2 mars 2012, 18h46m
Diet Mountain Dew 3:43 2 mars 2012, 17h45m
Diet Mountain Dew 3:43 2 mars 2012, 16h45m
Diet Mountain Dew 3:43 2 mars 2012, 15h44m
Diet Mountain Dew 3:43 2 mars 2012, 14h43m
Diet Mountain Dew 3:43 2 mars 2012, 13h34m
Diet Mountain Dew 3:43 2 mars 2012, 12h33m
Diet Mountain Dew 3:43 2 mars 2012, 11h32m
Diet Mountain Dew 3:43 2 mars 2012, 10h31m
Diet Mountain Dew 3:43 2 mars 2012, 9h31m